![]() |
EMODnet Physics ERDDAP
Easier access to scientific data |
log in|
Brought to you by EMODnet Physics |
| Dataset Title: | NDBC - Collection of dew point temperature (DEWT) TimeSeries - IN SITU MultiPointTimeSeriesObservation
|
| Institution: | NDBC (Dataset ID: TS_DEWT_NDBC) |
| Information: | Summary
| License
| FGDC
| ISO 19115
| Metadata
| Background
| Subset
| Data Access Form
| Make a graph
|
| Name | Last modified | Size | Description | |
|---|---|---|---|---|
| Parent Directory | - | - | ||
| 46099_TS_DEWT_012018.nc | 07-Dec-2024 13:48 | 450365 | ||
| 46099_TS_DEWT_012019.nc | 07-Dec-2024 13:51 | 449793 | ||
| 46099_TS_DEWT_012020.nc | 07-Dec-2024 13:56 | 449098 | ||
| 46099_TS_DEWT_012021.nc | 07-Dec-2024 14:01 | 449667 | ||
| 46099_TS_DEWT_012022.nc | 07-Dec-2024 14:05 | 449422 | ||
| 46099_TS_DEWT_012023.nc | 07-Dec-2024 14:09 | 449794 | ||
| 46099_TS_DEWT_022019.nc | 07-Dec-2024 13:52 | 449798 | ||
| 46099_TS_DEWT_022020.nc | 07-Dec-2024 13:57 | 450212 | ||
| 46099_TS_DEWT_022021.nc | 07-Dec-2024 14:01 | 449576 | ||
| 46099_TS_DEWT_022022.nc | 07-Dec-2024 14:05 | 449325 | ||
| 46099_TS_DEWT_022023.nc | 07-Dec-2024 14:09 | 449593 | ||
| 46099_TS_DEWT_032018.nc | 07-Dec-2024 13:48 | 4138936 | ||
| 46099_TS_DEWT_032019.nc | 07-Dec-2024 13:52 | 429681 | ||
| 46099_TS_DEWT_032020.nc | 07-Dec-2024 13:57 | 429686 | ||
| 46099_TS_DEWT_032021.nc | 07-Dec-2024 14:01 | 429682 | ||
| 46099_TS_DEWT_032022.nc | 07-Dec-2024 14:05 | 429666 | ||
| 46099_TS_DEWT_032023.nc | 07-Dec-2024 14:09 | 429683 | ||
| 46099_TS_DEWT_042017.nc | 07-Dec-2024 13:45 | 429695 | ||
| 46099_TS_DEWT_042018.nc | 07-Dec-2024 13:48 | 429671 | ||
| 46099_TS_DEWT_042019.nc | 07-Dec-2024 13:52 | 429691 | ||
| 46099_TS_DEWT_042020.nc | 07-Dec-2024 13:57 | 429701 | ||
| 46099_TS_DEWT_042021.nc | 07-Dec-2024 14:02 | 429674 | ||
| 46099_TS_DEWT_042022.nc | 07-Dec-2024 14:06 | 429687 | ||
| 46099_TS_DEWT_042023.nc | 07-Dec-2024 14:10 | 429700 | ||
| 46099_TS_DEWT_052017.nc | 07-Dec-2024 13:45 | 429690 | ||
| 46099_TS_DEWT_052018.nc | 07-Dec-2024 13:49 | 429371 | ||
| 46099_TS_DEWT_052019.nc | 07-Dec-2024 13:53 | 429693 | ||
| 46099_TS_DEWT_052020.nc | 07-Dec-2024 13:58 | 429687 | ||
| 46099_TS_DEWT_052021.nc | 07-Dec-2024 14:02 | 429686 | ||
| 46099_TS_DEWT_052022.nc | 07-Dec-2024 14:06 | 450702 | ||
| 46099_TS_DEWT_052023.nc | 07-Dec-2024 14:10 | 431487 | ||
| 46099_TS_DEWT_062017.nc | 07-Dec-2024 13:46 | 451289 | ||
| 46099_TS_DEWT_062018.nc | 07-Dec-2024 13:49 | 450353 | ||
| 46099_TS_DEWT_062019.nc | 07-Dec-2024 13:53 | 449828 | ||
| 46099_TS_DEWT_062020.nc | 07-Dec-2024 13:58 | 429911 | ||
| 46099_TS_DEWT_062021.nc | 07-Dec-2024 14:02 | 451008 | ||
| 46099_TS_DEWT_062022.nc | 07-Dec-2024 14:06 | 451452 | ||
| 46099_TS_DEWT_062023.nc | 07-Dec-2024 14:10 | 451099 | ||
| 46099_TS_DEWT_072017.nc | 07-Dec-2024 13:46 | 450465 | ||
| 46099_TS_DEWT_072019.nc | 07-Dec-2024 13:54 | 450454 | ||
| 46099_TS_DEWT_072020.nc | 07-Dec-2024 13:58 | 449903 | ||
| 46099_TS_DEWT_072021.nc | 07-Dec-2024 14:03 | 450258 | ||
| 46099_TS_DEWT_072022.nc | 07-Dec-2024 14:07 | 451339 | ||
| 46099_TS_DEWT_072023.nc | 07-Dec-2024 14:11 | 451805 | ||
| 46099_TS_DEWT_082017.nc | 07-Dec-2024 13:46 | 450047 | ||
| 46099_TS_DEWT_082018.nc | 07-Dec-2024 13:50 | 450340 | ||
| 46099_TS_DEWT_082019.nc | 07-Dec-2024 13:54 | 451838 | ||
| 46099_TS_DEWT_082020.nc | 07-Dec-2024 13:59 | 450714 | ||
| 46099_TS_DEWT_082021.nc | 07-Dec-2024 14:03 | 450321 | ||
| 46099_TS_DEWT_082022.nc | 07-Dec-2024 14:07 | 451252 | ||
| 46099_TS_DEWT_082023.nc | 07-Dec-2024 14:11 | 4617675 | ||
| 46099_TS_DEWT_092017.nc | 07-Dec-2024 13:47 | 429348 | ||
| 46099_TS_DEWT_092018.nc | 07-Dec-2024 13:50 | 429352 | ||
| 46099_TS_DEWT_092019.nc | 07-Dec-2024 13:55 | 429364 | ||
| 46099_TS_DEWT_092020.nc | 07-Dec-2024 13:59 | 429366 | ||
| 46099_TS_DEWT_092021.nc | 07-Dec-2024 14:03 | 429356 | ||
| 46099_TS_DEWT_092022.nc | 07-Dec-2024 14:07 | 429325 | ||
| 46099_TS_DEWT_092023.nc | 07-Dec-2024 14:11 | 429355 | ||
| 46099_TS_DEWT_102016.nc | 07-Dec-2024 13:44 | 429359 | ||
| 46099_TS_DEWT_102017.nc | 07-Dec-2024 13:47 | 429363 | ||
| 46099_TS_DEWT_102018.nc | 07-Dec-2024 13:50 | 429357 | ||
| 46099_TS_DEWT_102019.nc | 07-Dec-2024 13:55 | 429355 | ||
| 46099_TS_DEWT_102020.nc | 07-Dec-2024 14:00 | 428333 | ||
| 46099_TS_DEWT_102021.nc | 07-Dec-2024 14:04 | 429374 | ||
| 46099_TS_DEWT_102022.nc | 07-Dec-2024 14:08 | 429369 | ||
| 46099_TS_DEWT_102023.nc | 07-Dec-2024 14:11 | 429362 | ||
| 46099_TS_DEWT_112016.nc | 07-Dec-2024 13:44 | 429370 | ||
| 46099_TS_DEWT_112017.nc | 07-Dec-2024 13:47 | 425708 | ||
| 46099_TS_DEWT_112018.nc | 07-Dec-2024 13:51 | 446922 | ||
| 46099_TS_DEWT_112019.nc | 07-Dec-2024 13:55 | 449394 | ||
| 46099_TS_DEWT_112020.nc | 07-Dec-2024 14:00 | 449310 | ||
| 46099_TS_DEWT_112021.nc | 07-Dec-2024 14:04 | 449519 | ||
| 46099_TS_DEWT_112022.nc | 07-Dec-2024 14:08 | 448192 | ||
| 46099_TS_DEWT_112023.nc | 07-Dec-2024 14:12 | 429572 | ||
| 46099_TS_DEWT_122016.nc | 07-Dec-2024 13:44 | 450813 | ||
| 46099_TS_DEWT_122017.nc | 07-Dec-2024 13:47 | 449638 | ||
| 46099_TS_DEWT_122018.nc | 07-Dec-2024 13:51 | 450981 | ||
| 46099_TS_DEWT_122019.nc | 07-Dec-2024 13:56 | 449484 | ||
| 46099_TS_DEWT_122020.nc | 07-Dec-2024 14:00 | 448905 | ||
| 46099_TS_DEWT_122021.nc | 07-Dec-2024 14:04 | 448467 | ||
| 46099_TS_DEWT_122022.nc | 07-Dec-2024 14:08 | 448864 | ||
| 46099_TS_DEWT_122023.nc | 07-Dec-2024 14:12 | 448471 | ||